COSMOS 2251 DEB, 35593

Orbit data source: Space-Track

COSMOS 2251 DEB, 35593 is space debris in LEO originally from a launch on Wed, 16 Jun 1993 UTC launched from the Plesetsk Missile And Space Complex (PKMTR). The debris from Iridium 33, an American commercial communications satellite, has been tracked extensively since its accidental collision with the defunct Russian satellite Cosmos 2251 in 2009. This event, occurring at high speed in low Earth orbit (LEO), generated thousands of pieces of space debris, significantly increasing the risk of further collisions. The Iridium 33 debris cloud has impacted space traffic management and orbital debris mitigation strategies, making it a subject of ongoing study in space situational awareness.

Loading next visibility...
Identifier
35593, 1993-036AML
Orbit
LEO
Country
Flag of CISCIS
Related business
Manufacturer
Unknown
Mission
Spacecraft
Bus & Motor
Unknown
Mass
Unknown
Launch date (UTC)
1993-06-16 (33 years ago)
Launch vehicle
Unknown
Launch site
Plesetsk Missile And Space Complex (PKMTR)
Object type
Payload
Rocket body
Debris
Shape & HBR
Unknown shape, 0.1 m
Radar Cross Section
Small (<0.1 m²)

Expand to show TLE details & history
Last TLE update: 3 days ago

TLE from 3 days ago
0 COSMOS 2251 DEB
1 35593U 93036AML 26170.64223340  .00001163  00000-0  46851-3 0  9994
2 35593  74.0856 308.1851 0100827 268.5493  90.4103 14.26433850877586
Epoch: 2026-06-19T15:24Z
TLE epoch observation values (Epoch: 2026-06-19T15:24:48.965Z)
Latitude
-0.00006°
Longitude
169.11278°
Altitude
807.527 km
Speed
7.449 km/s
True Right ascension
20h 32m 44s
True Declination
0° 00' 00"
Sunlit
Object was in full shadow at epoch
Visualization orbit readout
Latitude
Unknown
Longitude
Unknown
Altitude
Unknown
Speed
Unknown
Apparent Right ascension
Unknown
Apparent Declination
Unknown
Sunlit
N/A
Visualization observer readout
Local Sidereal Time
21:43:28
Azimuth
Unknown
Elevation
Unknown
Doppler factor
Unknown
Orbital elements
Apogee altitude
873.694 km
Perigee altitude
728.918 km
Semi-major axis
7,179.443 km
Eccentricity
0.01008
Inclination
74.0856°
RAAN
308.1851°
Arg. of periapsis
268.5493°
True anomaly
91.56548°
Mean anomaly
90.4103°
Eccentric anomaly
90.98791°
Mean motion
3.56785 °/min
Orbital period
100.9 mins
BSTAR
0.00046851
Loading maneuver chart data...
Computing Atmospheric mass density...

Documentation

Showing up to 5 results
|